�������l�o���
Date,Time,MP-1(��Sv/h),MP-2(��Sv/h),MP-3(��Sv/h),MP-4(��Sv/h),MP-5(��Sv/h),MP-6(��Sv/h),MP-7(��Sv/h),MP-8(��Sv/h),����,����(m/s),���J
2017/07/20,00:00,0.980,1.551,1.043,1.845,1.284,0.525,0.958,0.886,��,5.3,��
2017/07/20,00:10,0.978,1.549,1.040,1.846,1.282,0.526,0.958,0.885,��쓌,6.0,��
2017/07/20,00:20,0.979,1.551,1.039,1.845,1.285,0.527,0.957,0.884,��,5.5,��
2017/07/20,00:30,0.979,1.551,1.040,1.849,1.282,0.525,0.959,0.885,��,6.1,��
2017/07/20,00:40,0.976,1.548,1.038,1.843,1.284,0.525,0.957,0.884,��,5.5,��
2017/07/20,00:50,0.979,1.550,1.040,1.846,1.286,0.525,0.960,0.884,��,5.7,��
2017/07/20,01:00,0.978,1.553,1.040,1.848,1.285,0.525,0.961,0.885,��,5.4,��
2017/07/20,01:10,0.980,1.553,1.039,1.847,1.287,0.527,0.959,0.884,��,4.6,��
2017/07/20,01:20,0.977,1.552,1.044,1.848,1.285,0.525,0.960,0.885,��,4.9,��
2017/07/20,01:30,0.978,1.551,1.041,1.845,1.287,0.526,0.960,0.884,��쓌,4.9,��
2017/07/20,01:40,0.977,1.554,1.039,1.844,1.284,0.526,0.960,0.885,��,3.8,��
2017/07/20,01:50,0.977,1.553,1.038,1.847,1.286,0.527,0.963,0.884,��,4.5,��
2017/07/20,02:00,0.979,1.554,1.041,1.848,1.287,0.526,0.960,0.884,��,5.5,��
2017/07/20,02:10,0.976,1.553,1.039,1.845,1.286,0.528,0.960,0.885,��,6.0,��
2017/07/20,02:20,0.979,1.554,1.039,1.843,1.287,0.526,0.961,0.885,��,4.8,��
2017/07/20,02:30,0.980,1.554,1.042,1.847,1.286,0.527,0.961,0.885,��,4.8,��
2017/07/20,02:40,0.981,1.554,1.040,1.843,1.287,0.526,0.960,0.883,��,5.1,��
2017/07/20,02:50,0.980,1.554,1.040,1.846,1.287,0.529,0.959,0.885,��,5.4,��
2017/07/20,03:00,0.980,1.554,1.039,1.845,1.287,0.528,0.960,0.884,��,5.3,��
2017/07/20,03:10,0.979,1.553,1.040,1.844,1.286,0.527,0.959,0.885,��,4.4,��
2017/07/20,03:20,0.980,1.553,1.039,1.844,1.287,0.527,0.960,0.886,��,4.5,��
2017/07/20,03:30,0.981,1.555,1.041,1.846,1.288,0.527,0.960,0.885,��,4.4,��
2017/07/20,03:40,0.981,1.554,1.038,1.846,1.286,0.527,0.961,0.885,��,4.9,��
2017/07/20,03:50,0.981,1.555,1.039,1.846,1.286,0.526,0.960,0.884,��,4.9,��
2017/07/20,04:00,0.981,1.553,1.042,1.846,1.287,0.527,0.961,0.884,��,5.2,��
2017/07/20,04:10,0.983,1.550,1.039,1.842,1.286,0.526,0.961,0.885,��,4.4,��
2017/07/20,04:20,0.980,1.554,1.042,1.847,1.286,0.526,0.962,0.887,��,3.6,��
2017/07/20,04:30,0.982,1.555,1.041,1.846,1.288,0.526,0.960,0.885,��,4.2,��
2017/07/20,04:40,0.981,1.553,1.041,1.847,1.287,0.527,0.961,0.887,��,5.3,��
2017/07/20,04:50,0.981,1.551,1.040,1.845,1.285,0.527,0.960,0.884,��쓌,5.3,��
2017/07/20,05:00,0.981,1.551,1.039,1.846,1.287,0.525,0.961,0.886,��,4.5,��
2017/07/20,05:10,0.982,1.553,1.041,1.846,1.287,0.524,0.961,0.885,��,4.6,��
2017/07/20,05:20,0.979,1.553,1.040,1.845,1.287,0.527,0.959,0.883,��,5.4,��
2017/07/20,05:30,0.981,1.551,1.042,1.846,1.285,0.525,0.960,0.884,��,6.1,��
2017/07/20,05:40,0.979,1.552,1.038,1.845,1.283,0.526,0.960,0.884,��,5.3,��
2017/07/20,05:50,0.979,1.551,1.041,1.847,1.285,0.525,0.960,0.884,��쓌,5.8,��
2017/07/20,06:00,0.980,1.552,1.038,1.847,1.284,0.526,0.960,0.884,��,5.1,��
2017/07/20,06:10,0.978,1.552,1.038,1.846,1.287,0.525,0.961,0.886,��,6.8,��
2017/07/20,06:20,0.980,1.553,1.039,1.847,1.285,0.525,0.960,0.885,��,6.0,��
2017/07/20,06:30,0.979,1.550,1.038,1.846,1.283,0.526,0.963,0.886,��,6.0,��
2017/07/20,06:40,0.981,1.551,1.037,1.847,1.284,0.525,0.960,0.885,��,6.9,��
2017/07/20,06:50,0.981,1.550,1.039,1.849,1.284,0.526,0.961,0.883,��,8.0,��
2017/07/20,07:00,0.981,1.551,1.039,1.851,1.284,0.525,0.960,0.885,��,6.0,��
2017/07/20,07:10,0.979,1.549,1.037,1.849,1.284,0.525,0.961,0.885,��,4.6,��
2017/07/20,07:20,0.981,1.551,1.040,1.847,1.285,0.524,0.961,0.885,��,3.4,��
2017/07/20,07:30,0.981,1.554,1.039,1.848,1.287,0.525,0.960,0.885,��,2.6,��
2017/07/20,07:40,0.981,1.550,1.041,1.850,1.284,0.526,0.961,0.885,��,4.9,��
2017/07/20,07:50,0.982,1.549,1.039,1.847,1.286,0.525,0.958,0.885,��,5.3,��
2017/07/20,08:00,0.982,1.553,1.039,1.849,1.288,0.526,0.958,0.883,��쓌,5.7,��
2017/07/20,08:10,0.980,1.552,1.039,1.846,1.283,0.524,0.958,0.881,��,5.2,��
2017/07/20,08:20,0.982,1.552,1.039,1.851,1.286,0.525,0.961,0.880,��,5.5,��
2017/07/20,08:30,0.981,1.553,1.039,1.849,1.288,0.526,0.960,0.883,��쓌,6.7,��
2017/07/20,08:40,0.983,1.550,1.041,1.852,1.287,0.527,0.959,0.882,��쓌,7.5,��
2017/07/20,08:50,0.982,1.554,1.040,1.849,1.288,0.526,0.959,0.882,��쓌,7.6,��
2017/07/20,09:00,0.981,1.554,1.040,1.848,1.289,0.526,0.962,0.883,��쓌,8.1,��
2017/07/20,09:10,0.982,1.555,1.041,1.851,1.287,0.526,0.958,0.884,��쓌,8.5,��
2017/07/20,09:20,0.984,1.555,1.038,1.851,1.292,0.525,0.960,0.884,��,8.2,��
2017/07/20,09:30,0.985,1.557,1.041,1.852,1.290,0.527,0.962,0.884,��,8.3,��
2017/07/20,09:40,0.985,1.558,1.041,1.851,1.289,0.526,0.960,0.881,��쓌,7.8,��
2017/07/20,09:50,0.984,1.559,1.042,1.852,1.292,0.527,0.961,0.883,��,8.0,��
2017/07/20,10:00,0.986,1.557,1.042,1.852,1.293,0.528,0.960,0.884,��,7.6,��
2017/07/20,10:10,0.987,1.557,1.043,1.852,1.292,0.527,0.960,0.883,��,7.5,��
2017/07/20,10:20,0.985,1.557,1.044,1.854,1.294,0.528,0.959,0.883,��,5.8,��
2017/07/20,10:30,0.986,1.559,1.044,1.857,1.292,0.529,0.961,0.885,��,6.9,��
2017/07/20,10:40,0.987,1.562,1.044,1.856,1.294,0.521,0.963,0.884,��,6.9,��
2017/07/20,10:50,0.989,1.561,1.041,1.852,1.294,0.528,0.963,0.886,��,6.9,��
2017/07/20,11:00,0.989,1.558,1.045,1.854,1.296,0.526,0.962,0.884,��,6.9,��
2017/07/20,11:10,0.990,1.561,1.045,1.853,1.297,0.528,0.962,0.885,��,6.7,��
2017/07/20,11:20,0.990,1.561,1.044,1.852,1.298,0.529,0.963,0.884,��,7.3,��
2017/07/20,11:30,0.993,1.564,1.041,1.851,1.298,0.527,0.965,0.885,��,7.0,��
2017/07/20,11:40,0.989,1.564,1.042,1.849,1.297,0.528,0.963,0.886,��,6.7,��
2017/07/20,11:50,0.990,1.565,1.046,1.853,1.299,0.529,0.965,0.886,��,6.8,��
2017/07/20,12:00,0.991,1.565,1.045,1.852,1.299,0.530,0.965,0.886,��,6.7,��
2017/07/20,12:10,0.992,1.568,1.047,1.857,1.300,0.529,0.965,0.885,��,6.0,��
2017/07/20,12:20,0.991,1.566,1.047,1.856,1.301,0.529,0.966,0.887,��쓌,6.5,��
2017/07/20,12:30,0.993,1.569,1.049,1.858,1.305,0.530,0.964,0.886,��,6.7,��
2017/07/20,12:40,0.993,1.568,1.049,1.856,1.305,0.529,0.962,0.887,��,8.3,��
2017/07/20,12:50,0.992,1.567,1.049,1.857,1.301,0.529,0.965,0.886,��,6.9,��
2017/07/20,13:00,0.995,1.569,1.053,1.859,1.302,0.529,0.964,0.885,��,6.8,��
2017/07/20,13:10,0.994,1.567,1.051,1.858,1.303,0.531,0.966,0.888,��,6.4,��
2017/07/20,13:20,0.996,1.569,1.048,1.856,1.283,0.528,0.965,0.888,��쓌,5.6,��
2017/07/20,13:30,0.995,1.569,1.050,1.859,1.295,0.531,0.966,0.887,��,6.2,��
2017/07/20,13:40,0.997,1.572,1.049,1.861,1.305,0.529,0.966,0.888,��,7.5,��
2017/07/20,13:50,0.997,1.571,1.052,1.849,1.307,0.530,0.966,0.888,��,7.0,��
2017/07/20,14:00,0.995,1.570,1.050,1.856,1.307,0.528,0.966,0.887,��,8.0,��
2017/07/20,14:10,0.998,1.571,1.053,1.859,1.308,0.530,0.965,0.888,��,7.9,��
2017/07/20,14:20,0.996,1.569,1.052,1.861,1.307,0.530,0.966,0.888,��,7.6,��
2017/07/20,14:30,0.996,1.572,1.054,1.858,1.308,0.528,0.965,0.888,��,7.5,��
2017/07/20,14:40,0.997,1.573,1.032,1.864,1.311,0.529,0.967,0.887,��,8.2,��
2017/07/20,14:50,0.998,1.573,1.039,1.860,1.307,0.528,0.966,0.887,��쓌,9.4,��
2017/07/20,15:00,0.999,1.572,1.053,1.865,1.308,0.529,0.964,0.889,��쓌,8.0,��
2017/07/20,15:10,0.997,1.574,1.054,1.863,1.312,0.528,0.966,0.887,��쓌,8.5,��
2017/07/20,15:20,0.999,1.573,1.054,1.863,1.308,0.530,0.966,0.889,��,7.5,��
2017/07/20,15:30,0.999,1.575,1.054,1.863,1.310,0.529,0.967,0.888,��쓌,8.7,��
2017/07/20,15:40,0.999,1.571,1.055,1.862,1.310,0.528,0.969,0.889,��,6.6,��
2017/07/20,15:50,0.999,1.574,1.055,1.866,1.310,0.529,0.966,0.890,��,7.9,��
2017/07/20,16:00,0.998,1.573,1.056,1.867,1.312,0.530,0.970,0.887,��,7.3,��
2017/07/20,16:10,0.997,1.574,1.055,1.867,1.310,0.529,0.970,0.887,��,7.9,��
2017/07/20,16:20,0.998,1.574,1.054,1.867,1.312,0.528,0.968,0.889,��,6.8,��
2017/07/20,16:30,0.996,1.574,1.053,1.867,1.314,0.529,0.969,0.887,��,7.3,��
2017/07/20,16:40,0.997,1.574,1.055,1.869,1.311,0.529,0.967,0.886,��,7.5,��
2017/07/20,16:50,0.998,1.575,1.053,1.867,1.312,0.529,0.966,0.888,��,6.7,��
2017/07/20,17:00,0.998,1.576,1.053,1.865,1.312,0.529,0.967,0.888,��,5.9,��
2017/07/20,17:10,0.998,1.576,1.056,1.865,1.311,0.530,0.967,0.886,��쐼,4.3,��
2017/07/20,17:20,0.999,1.576,1.055,1.869,1.308,0.530,0.967,0.888,��,5.5,��
2017/07/20,17:30,0.997,1.577,1.054,1.868,1.311,0.529,0.968,0.888,��,6.2,��
2017/07/20,17:40,0.997,1.576,1.054,1.868,1.310,0.529,0.966,0.887,��,7.9,��
2017/07/20,17:50,1.000,1.576,1.051,1.867,1.310,0.529,0.967,0.888,��,7.7,��
2017/07/20,18:00,0.997,1.576,1.053,1.869,1.311,0.528,0.968,0.888,��,9.6,��
2017/07/20,18:10,0.999,1.573,1.055,1.867,1.310,0.530,0.968,0.888,��,9.4,��
2017/07/20,18:20,0.998,1.576,1.052,1.867,1.308,0.528,0.966,0.889,��,9.7,��
2017/07/20,18:30,0.998,1.574,1.053,1.869,1.309,0.529,0.967,0.888,��,9.3,��
2017/07/20,18:40,1.000,1.576,1.054,1.871,1.309,0.528,0.967,0.889,��,9.7,��
2017/07/20,18:50,0.995,1.576,1.054,1.865,1.311,0.529,0.967,0.888,��,9.2,��
2017/07/20,19:00,0.996,1.577,1.054,1.867,1.312,0.529,0.967,0.889,��,9.4,��
2017/07/20,19:10,0.999,1.576,1.054,1.867,1.314,0.528,0.967,0.889,��,7.9,��
2017/07/20,19:20,0.997,1.574,1.055,1.865,1.312,0.529,0.968,0.890,��,8.6,��
2017/07/20,19:30,0.996,1.577,1.053,1.868,1.311,0.530,0.966,0.888,��,7.7,��
2017/07/20,19:40,0.998,1.577,1.051,1.865,1.312,0.529,0.967,0.890,��,7.8,��
2017/07/20,19:50,0.998,1.577,1.053,1.865,1.314,0.530,0.965,0.888,��,7.9,��
2017/07/20,20:00,0.997,1.579,1.052,1.867,1.313,0.531,0.967,0.890,��,7.7,��
2017/07/20,20:10,0.997,1.576,1.052,1.866,1.310,0.529,0.966,0.889,��,7.0,��
2017/07/20,20:20,0.997,1.579,1.055,1.868,1.310,0.529,0.965,0.889,��,7.7,��
2017/07/20,20:30,0.996,1.576,1.054,1.868,1.311,0.530,0.966,0.888,��,7.2,��
2017/07/20,20:40,0.996,1.578,1.056,1.870,1.312,0.529,0.965,0.890,��,7.2,��
2017/07/20,20:50,0.994,1.577,1.053,1.867,1.312,0.528,0.967,0.890,��,5.7,��
2017/07/20,21:00,0.997,1.578,1.055,1.865,1.312,0.530,0.965,0.887,��,5.0,��
2017/07/20,21:10,0.996,1.578,1.055,1.866,1.311,0.529,0.965,0.888,��,5.2,��
2017/07/20,21:20,0.996,1.575,1.053,1.864,1.311,0.529,0.966,0.890,��,4.9,��
2017/07/20,21:30,0.997,1.576,1.058,1.866,1.308,0.529,0.964,0.889,��,5.5,��
2017/07/20,21:40,0.998,1.576,1.055,1.866,1.310,0.530,0.966,0.891,��,5.9,��
2017/07/20,21:50,0.996,1.576,1.058,1.868,1.311,0.529,0.963,0.889,��,6.3,��
2017/07/20,22:00,0.997,1.577,1.054,1.866,1.311,0.529,0.967,0.887,��,5.8,��
2017/07/20,22:10,0.997,1.578,1.054,1.868,1.307,0.528,0.967,0.890,��,5.1,��
2017/07/20,22:20,0.997,1.573,1.056,1.867,1.311,0.530,0.965,0.890,��,5.4,��
2017/07/20,22:30,0.996,1.573,1.055,1.865,1.311,0.528,0.966,0.888,��,6.0,��
2017/07/20,22:40,0.997,1.573,1.057,1.866,1.310,0.530,0.967,0.888,��,5.4,��
2017/07/20,22:50,0.997,1.574,1.055,1.866,1.307,0.527,0.968,0.890,��,5.5,��
2017/07/20,23:00,0.996,1.576,1.056,1.865,1.307,0.528,0.967,0.890,��,6.3,��
2017/07/20,23:10,0.996,1.574,1.056,1.868,1.308,0.529,0.968,0.887,��,6.6,��
2017/07/20,23:20,0.997,1.575,1.053,1.866,1.309,0.528,0.966,0.888,��,6.3,��
2017/07/20,23:30,0.995,1.573,1.055,1.865,1.310,0.529,0.967,0.889,��,7.2,��
2017/07/20,23:40,0.996,1.575,1.054,1.866,1.310,0.528,0.967,0.890,��,7.3,��
2017/07/20,23:50,0.997,1.574,1.055,1.866,1.309,0.530,0.966,0.890,��,6.0,��
